Pittsburgh, PA

11:56 AM EDT on June 20, 2018 (GMT -0400)
Pittsburgh International

Weather History for KPIT - February, 2007

Change the Weather History Date:

Wednesday, February 7, 2007

  Actual Average Record
Temperature  
Mean Temperature 12 °F 30 °F  
Max Temperature 17 °F 38 °F 64 °F (1925)
Min Temperature 6 °F 22 °F -3 °F (1988)
Degree Days  
Heating Degree Days 53 35  
Month to date heating degree days 371 250  
Since 1 July heating degree days 3324 3559  
Cooling Degree Days 0 0  
Month to date cooling degree days 0 0  
Year to date cooling degree days 0 0  
Moisture  
Dew Point 2 °F    
Average Humidity 65    
Maximum Humidity 84    
Minimum Humidity 46    
Precipitation  
Precipitation 0.01 in 0.09 in 1.29 in (1890)
Month to date precipitation 0.19 0.61  
Year to date precipitation 3.47 3.31  
Snow  
Snow 0.30 in 0.30 in 4.50 in (1967)
Month to date snowfall 3.3 2.6  
Since 1 July snowfall 15.3 25.1  
Snow Depth 1.00 in    
Sea Level Pressure  
Sea Level Pressure 30.13 in    
Wind  
Wind Speed 10 mph (West)    
Max Wind Speed 21 mph    
Max Gust Speed 24 mph    
Visibility 8 miles    
Events Snow    
T = Trace of Precipitation, MM = Missing Value Source: NWS Daily Summary

Daily Weather History Graph

Daily Weather History Graph

Search for Another Location

Airport or City:

Astronomy

Feb. 07, 2007 Rise Set
Actual Time 7:24 AM EST 5:46 PM EST
Civil Twilight 6:56 AM EST 6:14 PM EST
Nautical Twilight 6:23 AM EST 6:46 PM EST
Astronomical Twilight 5:51 AM EST 7:18 PM EST
Moon 11:19 PM EST (2/7) 9:39 AM EST (2/7)
Length of Visible Light 11h 18m
Length of Day
10h 21m
Waning Gibbous, 74% of the Moon is Illuminated
Feb 7
Waning Gibbous
Feb 10
Last Quarter
Feb 17
New
Feb 24
First Quarter
Mar 3
Full

Hourly Weather History & Observations

Time (EST) Temp. Windchill Dew Point Humidity Pressure Visibility Wind Dir Wind Speed Gust Speed Precip Events Conditions
12:51 AM 10.0 °F 3.6 °F 6.1 °F 84% 30.03 in 4.0 mi North 3.5 mph - 0.00 in Snow Light Snow
1:51 AM 10.0 °F 1.8 °F 6.1 °F 84% 30.03 in 4.0 mi NW 4.6 mph - 0.00 in Snow Light Snow
2:06 AM 10.4 °F 2.2 °F 5.0 °F 79% 29.93 in 4.0 mi NW 4.6 mph - 0.00 in Snow Light Snow
2:51 AM 10.0 °F -0.9 °F 5.0 °F 80% 30.04 in 4.0 mi NW 6.9 mph - 0.00 in Snow Light Snow
3:51 AM 10.0 °F -1.9 °F 3.9 °F 76% 30.04 in 5.0 mi NW 8.1 mph - 0.00 in Snow Light Snow
4:51 AM 9.0 °F -2.2 °F 3.0 °F 77% 30.07 in 9.0 mi NW 6.9 mph - 0.00 in Snow Light Snow
5:51 AM 7.0 °F -5.7 °F 1.0 °F 77% 30.11 in 7.0 mi WNW 8.1 mph - 0.00 in Snow Light Snow
6:15 AM 6.8 °F -4.8 °F 1.4 °F 79% 30.01 in 5.0 mi West 6.9 mph - 0.00 in Snow Light Snow
6:35 AM 8.6 °F -6.3 °F 3.2 °F 79% 30.03 in 2.0 mi West 11.5 mph - 0.00 in Snow Light Snow
6:51 AM 9.0 °F -3.2 °F 3.9 °F 80% 30.13 in 2.0 mi West 8.1 mph - 0.00 in Snow Light Snow
7:14 AM 8.6 °F -1.3 °F 3.2 °F 79% 30.05 in 1.5 mi West 5.8 mph - 0.00 in Snow Light Snow
7:32 AM 8.6 °F -1.3 °F 3.2 °F 79% 30.06 in 6.0 mi West 5.8 mph - 0.00 in Snow Light Snow
7:51 AM 7.0 °F -1.7 °F 1.9 °F 80% 30.17 in 7.0 mi West 4.6 mph - 0.00 in   Scattered Clouds
8:51 AM 8.1 °F -6.2 °F 1.9 °F 76% 30.20 in 10.0 mi West 10.4 mph - N/A   Partly Cloudy
9:33 AM 8.6 °F -5.5 °F 1.4 °F 73% 30.12 in 10.0 mi West 10.4 mph - N/A   Mostly Cloudy
9:51 AM 9.0 °F -5.9 °F 1.9 °F 73% 30.22 in 7.0 mi West 11.5 mph - 0.00 in Snow Light Snow
10:51 AM 9.0 °F -7.3 °F 1.0 °F 70% 30.24 in 7.0 mi West 13.8 mph - 0.00 in Snow Light Snow
11:51 AM 12.0 °F -4.5 °F -0.9 °F 56% 30.23 in 9.0 mi West 16.1 mph 23.0 mph 0.00 in   Mostly Cloudy
12:04 PM 12.2 °F -2.5 °F -2.2 °F 53% 30.13 in 10.0 mi West 12.7 mph 19.6 mph N/A   Mostly Cloudy
12:51 PM 14.0 °F -2.0 °F -0.9 °F 52% 30.21 in 8.0 mi WNW 16.1 mph - N/A   Partly Cloudy
1:51 PM 16.0 °F 0.6 °F -0.9 °F 47% 30.19 in 10.0 mi West 16.1 mph - N/A   Partly Cloudy
2:51 PM 16.0 °F 0.1 °F -2.9 °F 43% 30.18 in 10.0 mi West 17.3 mph 20.7 mph N/A   Partly Cloudy
3:51 PM 17.1 °F 2.0 °F -0.9 °F 45% 30.17 in 10.0 mi West 16.1 mph 21.9 mph N/A   Scattered Clouds
4:51 PM 17.1 °F 2.5 °F -0.9 °F 45% 30.17 in 10.0 mi WSW 15.0 mph 19.6 mph N/A   Scattered Clouds
5:51 PM 15.1 °F 4.2 °F -0.9 °F 49% 30.18 in 10.0 mi West 8.1 mph - N/A   Scattered Clouds
6:51 PM 12.9 °F 3.8 °F -0.9 °F 54% 30.18 in 10.0 mi WSW 5.8 mph - N/A   Scattered Clouds
7:51 PM 12.0 °F 4.1 °F -0.0 °F 59% 30.19 in 10.0 mi SW 4.6 mph - N/A   Scattered Clouds
8:51 PM 12.0 °F -0.4 °F 1.0 °F 61% 30.18 in 10.0 mi SW 9.2 mph - N/A   Scattered Clouds
9:51 PM 10.9 °F 0.2 °F 1.0 °F 64% 30.18 in 10.0 mi WSW 6.9 mph - N/A   Scattered Clouds
10:51 PM 10.0 °F -0.9 °F 1.9 °F 70% 30.17 in 10.0 mi WSW 6.9 mph - N/A   Partly Cloudy
11:51 PM 9.0 °F -0.9 °F 1.9 °F 73% 30.16 in 10.0 mi WSW 5.8 mph - N/A   Partly Cloudy